Regional Weather Roundup
Issued by NWS

Home | Current Version | Previous Version | Text Only | Print | Product List | Glossary Off
Versions: 1 2 3 4 5 6 7 8 9 10 11 12 13 14 15 16 17 18 19 20 21 22 23 24 25 26 27 28 29 30 31 32 33 34 35 36 37 38 39 40 41 42 43 44 45 46 47 48 49 50

000
ASUS43 KFSD 301402
RWRSD

WEATHER ROUNDUP FOR SOUTH DAKOTA
NATIONAL WEATHER SERVICE SIOUX FALLS SD
900 AM CDT TUE JUN 30 2015

NOTE: "FAIR" INDICATES FEW OR NO CLOUDS BELOW 12,000 FEET WITH NO
SIGNIFICANT WEATHER AND/OR OBSTRUCTIONS TO VISIBILITY.


SDZ001>005-009-010-012>017-301500-
NORTHWEST AND NORTH CENTRAL SOUTH DAKOTA

CITY           SKY/WX    TMP DP  RH WIND       PRES   REMARKS
BUFFALO          N/A     68  62  81 E10       29.87F
FAITH            N/A     69  60  73 SE14      29.93S
MOBRIDGE       CLOUDY    68  66  93 SE5       29.92S
$$

SDZ012>016-024>037-041>051-057-063-072>074-301500-
SOUTHWEST AND SOUTH CENTRAL SOUTH DAKOTA

CITY           SKY/WX    TMP DP  RH WIND       PRES   REMARKS
RAPID CTY ARPT CLOUDY    72  60  66 NE6       29.96R
PIERRE         CLOUDY    70  63  78 SE12      29.91S
CUSTER         CLOUDY    70  54  56 W6        30.13F
ELLSWORTH AFB  CLOUDY    73  58  58 VRB1      29.96R
PHILIP         MOSUNNY   75  65  70 SE8       29.91F
PINE RIDGE     MOSUNNY   71  59  65 SW6       29.99F
WINNER         FAIR      75  58  55 SE16      29.93F
$$

SDZ004>011-016>023-039-040-301500-
NORTHEAST SOUTH DAKOTA

CITY           SKY/WX    TMP DP  RH WIND       PRES   REMARKS
ABERDEEN       CLOUDY    70  64  81 SE6       29.94S
WATERTOWN      CLOUDY    69  62  78 CALM      29.95F
BROOKINGS      CLOUDY    66  61  82 NE5       29.97F
SISSETON         N/A     66  62  87 E5        29.94F
$$

SDZ017-020-022-023-036>040-048>070-301500-
SOUTHEAST SOUTH DAKOTA

CITY           SKY/WX    TMP DP  RH WIND       PRES   REMARKS
SIOUX FALLS    CLOUDY    68  63  84 NE3       29.94F
HURON          LGT RAIN  67  65  93 E6        29.94S FOG
CHAMBERLAIN    CLOUDY    69  63  83 SE5       29.94R
MITCHELL       TSTM      67  66  97 NE7       29.96R VSB 1
YANKTON        CLOUDY    68  64  88 S6        29.92F
$$

ABBREVIATIONS USED IN REMARKS
   TC - TEMPERATURE IN CELSIUS
  WCI - WIND CHILL INDEX
   HX - HEAT INDEX
  VSB - VISIBILITY




USA.gov is the U.S. government's official web portal to all federal, state and local government web resources and services.